User: anonymous   Login
Location: Irma
(52.9170°N, 111.2330°W)
Time: 04:22:22
(UTC-07:00)
Language:

Cosmos 2279 Rocket - Orbit

View from above orbital plane
View from above orbital plane
View from above satellite
View from above satellite

Ground track
Ground track

The orbit data is extracted from the following two-line orbital elements,

1 23093U 94024B   14353.56159062  .00000117  00000-0  10165-3 0  9508
2 23093 082.9479 071.7166 0010600 044.1022 316.0979 13.77639557506049
Epoch (UTC): 19 December 2014 13:28:41
Eccentricity: 0.0010600
inclination: 82.9479°
perigee height: 964 km
apogee height: 980 km
right ascension of ascending node: 71.7166°
argument of perigee: 44.1022°
revolutions per day: 13.77639557
mean anomaly at epoch: 316.0979°
orbit number at epoch: 50604

The dashed part of the orbit path shows where the satellite is in the earth's shadow,  

DLR